Wind_Speed
16 16 14 14 12 14 15 16 13 10 8 14 15 17 18 19 11 15 18 15 17 18 17 16 16 15 17
17 15 17 14 14 15 15 15 14 12 13 12 11 12 14 13 13 19 19 17 17 14 13 14 13 14 17
19 15 14 15 13 13 11 11 11 11 12 10 10 10 11 11 14 18 13 13 13 14 13 13 13 12 12
14 13 13 10 10 9 9 9 10 10 10 10 10 10 12 12 9 9 10 10 10 10 10 11 11 12 13
6 8 10 9 9 8 10 9 7 7 7 7 8 7 7 4 4 5 5 6 7 8 9 10 11 11 12
4 3 4 4 5 5 6 7 6 5 3 2 3 4 5 5 6 6 7 8 9 10 11 11 13 13 15
5 5 6 4 4 4 4 3 2 2 1 3 3 2 2 3 3 4 5 7 8 9 10 11 12 13 14
9 8 7 7 6 5 4 3 3 3 1 0 3 3 3 3 3 5 6 8 10 11 13 14 14 15 16
8 8 8 7 6 4 4 3 3 3 3 4 5 5 6 6 6 8 10 11 12 14 17 17 18 17 17
5 4 4 5 5 5 5 5 5 6 6 6 6 7 5 10 10 12 13 14 16 17 17 17 17 17 17
3 5 6 7 8 9 9 8 7 7 8 8 8 9 8 11 13 14 14 14 13 13 13 14 15 16 16
6 7 8 10 12 11 9 8 7 7 8 8 8 9 9 10 9 11 11 11 11 13 13 13 13 13 14
8 9 10 12 11 9 8 7 7 7 7 8 8 8 8 8 9 9 10 9 11 14 13 13 13 14 15
8 10 11 10 8 7 6 6 7 8 8 8 8 8 7 7 6 6 9 10 12 15 15 12 11 12 14
9 10 9 7 5 4 4 5 5 6 7 8 8 8 7 7 5 7 10 11 13 16 16 15 12 13 12
9 8 6 4 4 4 5 5 6 7 8 8 7 6 6 6 6 7 11 14 14 14 15 19 16 14 13
7 6 4 3 3 4 5 7 7 9 9 9 9 10 9 8 6 9 15 15 16 15 16 17 19 15 14
Wind_Direction
290 291 289 293 290 289 287 293 299 295 274 280 279 285 288 297 306 311 304 303 311 309 303 299 293 304 299
288 285 292 289 290 283 283 282 282 272 271 272 280 293 301 301 309 306 305 296 300 305 318 310 316 320 314
280 287 287 280 284 274 257 267 277 262 253 258 276 288 301 306 307 302 309 316 317 317 312 316 317 322 332
276 265 261 275 278 260 250 267 262 263 263 267 278 291 292 298 313 319 318 320 335 330 327 323 330 325 324
273 256 260 259 263 263 265 260 256 253 264 280 297 291 297 312 344 355 12 26 33 31 28 25 21 12 0
269 258 267 264 268 270 260 252 251 275 299 350 18 46 58 70 59 46 36 35 34 33 31 30 29 25 19
84 81 74 71 70 65 73 81 82 147 127 74 53 41 28 22 31 14 9 9 10 3 1 1 1 2 3
81 79 78 76 72 69 67 53 49 51 212 253 326 306 315 320 328 336 341 340 336 334 333 334 338 340 341
71 65 61 56 48 36 23 358 322 313 330 274 305 305 289 287 298 316 319 321 320 320 320 322 326 328 327
55 36 21 10 0 347 337 324 310 298 304 307 297 313 299 281 287 306 308 310 312 315 319 326 330 332 334
339 337 334 329 325 322 318 311 305 297 302 306 299 302 293 287 294 299 303 310 316 324 331 337 338 338 340
312 313 314 318 320 319 317 315 313 312 314 316 313 309 305 304 298 304 313 320 324 335 343 345 342 342 342
301 302 310 316 320 321 320 319 323 330 329 325 319 314 312 310 308 317 330 332 338 342 347 346 341 339 339
293 303 313 318 321 323 327 328 327 329 329 332 328 321 315 313 310 326 341 342 338 337 333 345 349 343 341
296 304 308 312 320 327 333 334 332 333 333 331 331 326 315 314 293 321 332 335 332 329 330 343 358 346 343
298 298 297 297 310 328 338 341 341 340 338 336 335 340 329 320 295 317 328 329 331 331 334 334 345 353 339
292 284 275 286 312 325 332 332 330 333 335 340 347 353 354 338 316 326 330 331 331 334 334 331 332 344 335
Height
1497 1496 1495 1495 1494 1493 1492 1492 1490 1489 1488 1487 1486 1484 1483 1482 1481 1480 1478 1476 1475 1473 1471 1468 1465 1464 1463
1494 1492 1491 1490 1490 1489 1489 1489 1488 1486 1486 1484 1483 1481 1479 1478 1478 1477 1475 1474 1472 1470 1468 1465 1462 1460 1457
1489 1488 1487 1487 1486 1485 1485 1485 1485 1483 1482 1481 1481 1479 1477 1476 1475 1474 1473 1471 1468 1466 1464 1461 1459 1457 1454
1485 1485 1485 1484 1483 1483 1483 1482 1482 1481 1480 1479 1478 1476 1475 1474 1473 1472 1470 1468 1466 1464 1461 1459 1456 1453 1451
1482 1482 1482 1481 1481 1480 1480 1480 1479 1478 1478 1476 1475 1474 1473 1473 1472 1470 1468 1466 1464 1462 1460 1457 1454 1452 1449
1481 1480 1479 1479 1479 1479 1478 1478 1478 1477 1477 1476 1475 1473 1473 1472 1470 1469 1467 1466 1464 1462 1460 1458 1455 1452 1449
1481 1480 1480 1480 1479 1479 1479 1478 1478 1478 1477 1476 1475 1474 1473 1471 1470 1468 1467 1465 1463 1462 1460 1457 1455 1452 1450
1483 1483 1483 1482 1482 1481 1481 1480 1480 1478 1477 1476 1475 1474 1472 1471 1469 1467 1466 1464 1462 1460 1457 1455 1453 1451 1449
1485 1485 1485 1484 1483 1483 1482 1481 1480 1478 1477 1475 1474 1472 1471 1469 1468 1466 1464 1462 1460 1457 1454 1452 1450 1447 1445
1487 1487 1486 1485 1484 1483 1481 1480 1478 1476 1475 1475 1472 1471 1469 1467 1466 1464 1462 1460 1457 1454 1451 1449 1446 1443 1441
1488 1487 1486 1485 1483 1481 1480 1478 1476 1475 1473 1472 1470 1469 1467 1465 1463 1461 1459 1457 1454 1451 1449 1446 1443 1441 1439
1487 1486 1485 1483 1481 1479 1477 1475 1474 1473 1471 1469 1467 1466 1464 1462 1461 1459 1457 1454 1452 1449 1447 1444 1442 1440 1438
1486 1485 1483 1481 1479 1477 1475 1473 1472 1471 1469 1468 1466 1464 1463 1461 1460 1457 1455 1453 1450 1447 1445 1443 1440 1438 1436
1484 1482 1480 1478 1476 1475 1474 1473 1472 1470 1469 1467 1465 1463 1462 1460 1459 1457 1455 1452 1449 1446 1444 1442 1439 1436 1434
1482 1480 1478 1476 1475 1474 1473 1472 1471 1469 1468 1466 1464 1462 1460 1459 1458 1456 1454 1451 1449 1445 1442 1439 1438 1435 1433
1480 1478 1476 1475 1475 1474 1473 1472 1470 1468 1467 1465 1463 1461 1460 1458 1456 1455 1452 1450 1447 1444 1440 1436 1434 1433 1431
1478 1476 1475 1475 1474 1473 1472 1470 1469 1467 1466 1464 1462 1461 1459 1457 1455 1453 1450 1447 1444 1442 1438 1436 1432 1430 1428